ボアッティーニ彗星

C/2011 L6 ( Boattini )

English version
Home page
Updated on September 1, 2011

---------------------------------------------------------------------

・ プロフィール

発見日 2011年6月8日
発見光度 20.5等
発見者 A. Boattini (Mt. Lemmon)

・ 写真集

・ 軌道要素

T 2011 Jan. 22.87245 TT                                 MPC
q   6.7861968            (2000.0)            P               Q
                   Peri.  331.62644     -0.45896948     -0.88445222
                   Node   214.49857     -0.78445212     +0.35892066
e   1.0            Incl.  171.44961     -0.41711137     +0.29819494
From 46 observations 2011 May 28-July 5.

・ 光度変化

        m1 = 8.0 + 5 logΔ + 10.0 log r

---------------------------------------------------------------------

軌道要素はM.P.E.C. 2011-N34に掲載されたものです。
光度グラフはComet for Windowsで作成したものです。

---------------------------------------------------------------------

Copyright(C) Seiichi Yoshida (comet@aerith.net). All rights reserved.